Data supplied by UK-AIR on 21/3/2020
All Data GMT hour ending 
Status: R =Ratified P=Provisional,P*=As supplied
,,Christchurch Barrack Road,,,,,,,,,,,,,,,,,,,,,,,
Date,time,"Nitric oxide",status,unit,"Nitrogen dioxide",status,unit,"Nitrogen oxides as nitrogen dioxide",status,unit,"PM<sub>2.5</sub> particulate matter (Hourly measured)",status,unit
 
01-01-2019,01:00,1.90360,R,ugm-3,5.28083,R,ugm-3,8.19965,R,ugm-3,10.000,R,ugm-3 (BAM)
01-01-2019,02:00,3.14316,R,ugm-3,8.13463,R,ugm-3,12.95407,R,ugm-3,10.000,R,ugm-3 (BAM)
01-01-2019,03:00,2.98822,R,ugm-3,7.14915,R,ugm-3,11.73102,R,ugm-3,8.000,R,ugm-3 (BAM)
01-01-2019,04:00,1.29489,R,ugm-3,3.95755,R,ugm-3,5.94303,R,ugm-3,11.000,R,ugm-3 (BAM)
01-01-2019,05:00,1.06248,R,ugm-3,2.97028,R,ugm-3,4.59939,R,ugm-3,13.000,R,ugm-3 (BAM)
01-01-2019,06:00,1.32810,R,ugm-3,3.90664,R,ugm-3,5.94303,R,ugm-3,13.000,R,ugm-3 (BAM)
01-01-2019,07:00,1.36130,R,ugm-3,5.92287,R,ugm-3,8.01017,R,ugm-3,8.000,R,ugm-3 (BAM)
01-01-2019,08:00,2.42378,R,ugm-3,13.69925,R,ugm-3,17.41565,R,ugm-3,9.000,R,ugm-3 (BAM)
01-01-2019,09:00,9.66190,R,ugm-3,36.03692,R,ugm-3,50.85163,R,ugm-3,11.000,R,ugm-3 (BAM)
01-01-2019,10:00,5.74402,R,ugm-3,22.50979,R,ugm-3,31.31716,R,ugm-3,9.000,R,ugm-3 (BAM)
01-01-2019,11:00,7.73616,R,ugm-3,12.37526,R,ugm-3,24.23721,R,ugm-3,7.000,R,ugm-3 (BAM)
01-01-2019,12:00,11.32202,R,ugm-3,17.72950,R,ugm-3,35.08969,R,ugm-3,15.000,R,ugm-3 (BAM)
01-01-2019,13:00,10.65797,R,ugm-3,17.81748,R,ugm-3,34.15948,R,ugm-3,12.000,R,ugm-3 (BAM)
01-01-2019,14:00,12.08568,R,ugm-3,19.45258,R,ugm-3,37.98369,R,ugm-3,8.000,R,ugm-3 (BAM)
01-01-2019,15:00,10.02713,R,ugm-3,18.31966,R,ugm-3,33.69437,R,ugm-3,10.000,R,ugm-3 (BAM)
01-01-2019,16:00,11.52124,R,ugm-3,26.88121,R,ugm-3,44.54686,R,ugm-3,12.000,R,ugm-3 (BAM)
01-01-2019,17:00,12.98214,R,ugm-3,32.75471,R,ugm-3,52.66038,R,ugm-3,14.000,R,ugm-3 (BAM)
01-01-2019,18:00,23.30809,R,ugm-3,46.06847,R,ugm-3,81.80705,R,ugm-3,24.000,R,ugm-3 (BAM)
01-01-2019,19:00,21.08353,R,ugm-3,42.55450,R,ugm-3,74.88213,R,ugm-3,23.000,R,ugm-3 (BAM)
01-01-2019,20:00,14.40985,R,ugm-3,31.44412,R,ugm-3,53.53891,R,ugm-3,16.000,R,ugm-3 (BAM)
01-01-2019,21:00,4.51553,R,ugm-3,12.04229,R,ugm-3,18.96600,R,ugm-3,8.000,R,ugm-3 (BAM)
01-01-2019,22:00,4.94716,R,ugm-3,12.87914,R,ugm-3,20.46468,R,ugm-3,9.000,R,ugm-3 (BAM)
01-01-2019,23:00,2.92181,R,ugm-3,10.09328,R,ugm-3,14.57333,R,ugm-3,9.000,R,ugm-3 (BAM)
01-01-2019,24:00,3.95109,R,ugm-3,12.23594,R,ugm-3,18.29419,R,ugm-3,10.000,R,ugm-3 (BAM)
02-01-2019,01:00,4.29707,R,ugm-3,13.48541,R,ugm-3,20.07417,R,ugm-3,16.000,R,ugm-3 (BAM)
02-01-2019,02:00,0.73095,R,ugm-3,7.72635,R,ugm-3,8.84712,R,ugm-3,12.000,R,ugm-3 (BAM)
02-01-2019,03:00,4.11988,R,ugm-3,9.61811,R,ugm-3,15.93516,R,ugm-3,8.000,R,ugm-3 (BAM)
02-01-2019,04:00,1.19609,R,ugm-3,7.63399,R,ugm-3,9.46797,R,ugm-3,5.000,R,ugm-3 (BAM)
02-01-2019,05:00,1.12964,R,ugm-3,6.44244,R,ugm-3,8.17453,R,ugm-3,6.000,R,ugm-3 (BAM)
02-01-2019,06:00,3.65473,R,ugm-3,11.52129,R,ugm-3,17.12513,R,ugm-3,11.000,R,ugm-3 (BAM)
02-01-2019,07:00,22.85866,R,ugm-3,35.05491,R,ugm-3,70.10437,R,ugm-3,14.000,R,ugm-3 (BAM)
02-01-2019,08:00,64.88804,R,ugm-3,64.66961,R,ugm-3,164.16321,R,ugm-3,12.000,R,ugm-3 (BAM)
02-01-2019,09:00,73.02811,R,ugm-3,69.83084,R,ugm-3,181.80571,R,ugm-3,11.000,R,ugm-3 (BAM)
02-01-2019,10:00,66.68218,R,ugm-3,64.50551,R,ugm-3,166.75009,R,ugm-3,13.000,R,ugm-3 (BAM)
02-01-2019,11:00,67.31345,R,ugm-3,61.20939,R,ugm-3,164.42190,R,ugm-3,20.000,R,ugm-3 (BAM)
02-01-2019,12:00,65.22028,R,ugm-3,67.78180,R,ugm-3,167.78484,R,ugm-3,18.000,R,ugm-3 (BAM)
02-01-2019,13:00,48.54144,R,ugm-3,58.74327,R,ugm-3,133.17243,R,ugm-3,,,
02-01-2019,14:00,,,,,,,,,,,,
02-01-2019,15:00,50.00333,R,ugm-3,66.33186,R,ugm-3,143.00256,R,ugm-3,15.000,R,ugm-3 (BAM)
02-01-2019,16:00,86.71673,R,ugm-3,73.88288,R,ugm-3,206.84668,R,ugm-3,17.000,R,ugm-3 (BAM)
02-01-2019,17:00,64.25677,R,ugm-3,71.63910,R,ugm-3,170.16477,R,ugm-3,16.000,R,ugm-3 (BAM)
02-01-2019,18:00,61.93103,R,ugm-3,73.39437,R,ugm-3,168.35395,R,ugm-3,14.000,R,ugm-3 (BAM)
02-01-2019,19:00,45.45153,R,ugm-3,68.29265,R,ugm-3,137.98402,R,ugm-3,14.000,R,ugm-3 (BAM)
02-01-2019,20:00,22.22739,R,ugm-3,45.23212,R,ugm-3,79.31365,R,ugm-3,12.000,R,ugm-3 (BAM)
02-01-2019,21:00,12.75832,R,ugm-3,35.90015,R,ugm-3,55.46264,R,ugm-3,14.000,R,ugm-3 (BAM)
02-01-2019,22:00,15.84823,R,ugm-3,41.82030,R,ugm-3,66.12058,R,ugm-3,18.000,R,ugm-3 (BAM)
02-01-2019,23:00,10.36614,R,ugm-3,40.39592,R,ugm-3,56.29044,R,ugm-3,19.000,R,ugm-3 (BAM)
02-01-2019,24:00,9.76809,R,ugm-3,29.56849,R,ugm-3,44.54602,R,ugm-3,16.000,R,ugm-3 (BAM)
03-01-2019,01:00,8.72850,R,ugm-3,20.93222,R,ugm-3,34.31574,R,ugm-3,11.000,R,ugm-3 (BAM)
03-01-2019,02:00,2.79135,R,ugm-3,14.43139,R,ugm-3,18.71140,R,ugm-3,14.000,R,ugm-3 (BAM)
03-01-2019,03:00,2.82458,R,ugm-3,12.55073,R,ugm-3,16.88169,R,ugm-3,13.000,R,ugm-3 (BAM)
03-01-2019,04:00,1.16306,R,ugm-3,8.62531,R,ugm-3,10.40865,R,ugm-3,9.000,R,ugm-3 (BAM)
03-01-2019,05:00,1.06337,R,ugm-3,8.51925,R,ugm-3,10.14972,R,ugm-3,9.000,R,ugm-3 (BAM)
03-01-2019,06:00,5.61593,R,ugm-3,14.79554,R,ugm-3,23.40651,R,ugm-3,8.000,R,ugm-3 (BAM)
03-01-2019,07:00,16.14994,R,ugm-3,32.14806,R,ugm-3,56.91096,R,ugm-3,8.000,R,ugm-3 (BAM)
03-01-2019,08:00,37.01859,R,ugm-3,55.14485,R,ugm-3,111.90589,R,ugm-3,15.000,R,ugm-3 (BAM)
03-01-2019,09:00,33.79525,R,ugm-3,51.54282,R,ugm-3,103.36148,R,ugm-3,11.000,R,ugm-3 (BAM)
03-01-2019,10:00,43.83081,R,ugm-3,56.92069,R,ugm-3,124.12699,R,ugm-3,8.000,R,ugm-3 (BAM)
03-01-2019,11:00,31.17005,R,ugm-3,49.09503,R,ugm-3,96.88844,R,ugm-3,7.000,R,ugm-3 (BAM)
03-01-2019,12:00,29.04331,R,ugm-3,43.86336,R,ugm-3,88.39581,R,ugm-3,7.000,R,ugm-3 (BAM)
03-01-2019,13:00,36.91890,R,ugm-3,50.74069,R,ugm-3,107.34887,R,ugm-3,10.000,R,ugm-3 (BAM)
03-01-2019,14:00,45.16002,R,ugm-3,55.03794,R,ugm-3,124.28234,R,ugm-3,11.000,R,ugm-3 (BAM)
03-01-2019,15:00,36.18783,R,ugm-3,44.81897,R,ugm-3,100.30621,R,ugm-3,13.000,R,ugm-3 (BAM)
03-01-2019,16:00,34.32693,R,ugm-3,47.98302,R,ugm-3,100.61691,R,ugm-3,14.000,R,ugm-3 (BAM)
03-01-2019,17:00,73.50549,R,ugm-3,70.35068,R,ugm-3,183.05753,R,ugm-3,15.000,R,ugm-3 (BAM)
03-01-2019,18:00,123.71652,R,ugm-3,95.53195,R,ugm-3,285.22797,R,ugm-3,27.000,R,ugm-3 (BAM)
03-01-2019,19:00,55.36173,R,ugm-3,69.68936,R,ugm-3,154.57616,R,ugm-3,16.000,R,ugm-3 (BAM)
03-01-2019,20:00,36.75275,R,ugm-3,57.46849,R,ugm-3,113.82191,R,ugm-3,23.000,R,ugm-3 (BAM)
03-01-2019,21:00,25.78674,R,ugm-3,57.81539,R,ugm-3,97.35450,R,ugm-3,27.000,R,ugm-3 (BAM)
03-01-2019,22:00,21.99848,R,ugm-3,51.61001,R,ugm-3,85.34054,R,ugm-3,44.000,R,ugm-3 (BAM)
03-01-2019,23:00,23.99230,R,ugm-3,62.63819,R,ugm-3,99.42587,R,ugm-3,33.000,R,ugm-3 (BAM)
03-01-2019,24:00,8.30758,R,ugm-3,43.29251,R,ugm-3,56.03062,R,ugm-3,31.000,R,ugm-3 (BAM)
04-01-2019,01:00,5.93814,R,ugm-3,25.86368,R,ugm-3,34.96870,R,ugm-3,27.000,R,ugm-3 (BAM)
04-01-2019,02:00,3.42329,R,ugm-3,24.60572,R,ugm-3,29.85470,R,ugm-3,23.000,R,ugm-3 (BAM)
04-01-2019,03:00,1.82797,R,ugm-3,19.95099,R,ugm-3,22.75384,R,ugm-3,23.000,R,ugm-3 (BAM)
04-01-2019,04:00,1.39591,R,ugm-3,16.93348,R,ugm-3,19.07384,R,ugm-3,20.000,R,ugm-3 (BAM)
04-01-2019,05:00,1.96092,R,ugm-3,16.68911,R,ugm-3,19.69581,R,ugm-3,19.000,R,ugm-3 (BAM)
04-01-2019,06:00,7.07924,R,ugm-3,19.62199,R,ugm-3,30.47667,R,ugm-3,19.000,R,ugm-3 (BAM)
04-01-2019,07:00,35.56237,R,ugm-3,50.42972,R,ugm-3,104.95793,R,ugm-3,18.000,R,ugm-3 (BAM)
04-01-2019,08:00,48.02582,R,ugm-3,52.46645,R,ugm-3,126.10501,R,ugm-3,20.000,R,ugm-3 (BAM)
04-01-2019,09:00,57.19891,R,ugm-3,58.87451,R,ugm-3,146.57828,R,ugm-3,21.000,R,ugm-3 (BAM)
04-01-2019,10:00,65.50788,R,ugm-3,53.90893,R,ugm-3,154.35295,R,ugm-3,22.000,R,ugm-3 (BAM)
04-01-2019,11:00,46.13137,R,ugm-3,49.51431,R,ugm-3,120.24810,R,ugm-3,25.000,R,ugm-3 (BAM)
04-01-2019,12:00,43.33956,R,ugm-3,50.11503,R,ugm-3,116.56809,R,ugm-3,16.000,R,ugm-3 (BAM)
04-01-2019,13:00,28.61607,R,ugm-3,35.06136,R,ugm-3,78.93873,R,ugm-3,13.000,R,ugm-3 (BAM)
04-01-2019,14:00,40.71393,R,ugm-3,41.59782,R,ugm-3,104.02497,R,ugm-3,17.000,R,ugm-3 (BAM)
04-01-2019,15:00,64.61051,R,ugm-3,59.22404,R,ugm-3,158.29211,R,ugm-3,19.000,R,ugm-3 (BAM)
04-01-2019,16:00,65.97318,R,ugm-3,72.16565,R,ugm-3,173.32312,R,ugm-3,23.000,R,ugm-3 (BAM)
04-01-2019,17:00,76.40924,R,ugm-3,71.09127,R,ugm-3,188.25047,R,ugm-3,26.000,R,ugm-3 (BAM)
04-01-2019,18:00,82.72405,R,ugm-3,74.62561,R,ugm-3,201.46739,R,ugm-3,31.000,R,ugm-3 (BAM)
04-01-2019,19:00,57.83040,R,ugm-3,78.37952,R,ugm-3,167.05156,R,ugm-3,44.000,R,ugm-3 (BAM)
04-01-2019,20:00,50.91734,R,ugm-3,72.39346,R,ugm-3,150.46561,R,ugm-3,52.000,R,ugm-3 (BAM)
04-01-2019,21:00,40.94658,R,ugm-3,70.57748,R,ugm-3,133.36136,R,ugm-3,57.000,R,ugm-3 (BAM)
04-01-2019,22:00,19.77534,R,ugm-3,40.27217,R,ugm-3,70.59393,R,ugm-3,37.000,R,ugm-3 (BAM)
04-01-2019,23:00,12.43021,R,ugm-3,35.77789,R,ugm-3,54.83728,R,ugm-3,39.000,R,ugm-3 (BAM)
04-01-2019,24:00,21.40389,R,ugm-3,44.04664,R,ugm-3,76.86549,R,ugm-3,41.000,R,ugm-3 (BAM)
05-01-2019,01:00,10.01674,R,ugm-3,35.27399,R,ugm-3,50.63278,R,ugm-3,36.000,R,ugm-3 (BAM)
05-01-2019,02:00,6.04993,R,ugm-3,29.99509,R,ugm-3,39.27153,R,ugm-3,38.000,R,ugm-3 (BAM)
05-01-2019,03:00,13.19683,R,ugm-3,34.60002,R,ugm-3,54.83488,R,ugm-3,39.000,R,ugm-3 (BAM)
05-01-2019,04:00,8.84221,R,ugm-3,32.97656,R,ugm-3,46.53443,R,ugm-3,36.000,R,ugm-3 (BAM)
05-01-2019,05:00,4.18842,R,ugm-3,26.93531,R,ugm-3,33.35745,R,ugm-3,32.000,R,ugm-3 (BAM)
05-01-2019,06:00,3.05821,R,ugm-3,24.05114,R,ugm-3,28.74033,R,ugm-3,33.000,R,ugm-3 (BAM)
05-01-2019,07:00,16.22180,R,ugm-3,36.96531,R,ugm-3,61.83839,R,ugm-3,34.000,R,ugm-3 (BAM)
05-01-2019,08:00,30.91449,R,ugm-3,43.64406,R,ugm-3,91.04562,R,ugm-3,26.000,R,ugm-3 (BAM)
05-01-2019,09:00,56.01174,R,ugm-3,57.24751,R,ugm-3,143.13097,R,ugm-3,28.000,R,ugm-3 (BAM)
05-01-2019,10:00,54.08374,R,ugm-3,60.04810,R,ugm-3,142.97534,R,ugm-3,30.000,R,ugm-3 (BAM)
05-01-2019,11:00,52.48815,R,ugm-3,62.75402,R,ugm-3,143.23473,R,ugm-3,28.000,R,ugm-3 (BAM)
05-01-2019,12:00,43.57946,R,ugm-3,54.88452,R,ugm-3,121.70542,R,ugm-3,22.000,R,ugm-3 (BAM)
05-01-2019,13:00,53.05326,R,ugm-3,65.46711,R,ugm-3,146.81430,R,ugm-3,24.000,R,ugm-3 (BAM)
05-01-2019,14:00,41.85091,R,ugm-3,60.54384,R,ugm-3,124.71434,R,ugm-3,18.000,R,ugm-3 (BAM)
05-01-2019,15:00,16.35476,R,ugm-3,47.65578,R,ugm-3,72.73274,R,ugm-3,22.000,R,ugm-3 (BAM)
05-01-2019,16:00,11.60125,R,ugm-3,51.05357,R,ugm-3,68.84190,R,ugm-3,27.000,R,ugm-3 (BAM)
05-01-2019,17:00,9.90593,R,ugm-3,51.52602,R,ugm-3,66.71491,R,ugm-3,30.000,R,ugm-3 (BAM)
05-01-2019,18:00,40.62098,R,ugm-3,69.74449,R,ugm-3,132.02911,R,ugm-3,42.000,R,ugm-3 (BAM)
05-01-2019,19:00,56.41064,R,ugm-3,77.12762,R,ugm-3,163.62272,R,ugm-3,52.000,R,ugm-3 (BAM)
05-01-2019,20:00,32.31063,R,ugm-3,70.03616,R,ugm-3,119.57843,R,ugm-3,48.000,R,ugm-3 (BAM)
05-01-2019,21:00,50.92581,R,ugm-3,63.59325,R,ugm-3,141.67839,R,ugm-3,50.000,R,ugm-3 (BAM)
05-01-2019,22:00,65.98416,R,ugm-3,63.43411,R,ugm-3,164.60840,R,ugm-3,59.000,R,ugm-3 (BAM)
05-01-2019,23:00,49.59615,R,ugm-3,62.36372,R,ugm-3,138.41009,R,ugm-3,48.000,R,ugm-3 (BAM)
05-01-2019,24:00,19.14704,R,ugm-3,50.79289,R,ugm-3,80.15127,R,ugm-3,29.000,R,ugm-3 (BAM)
06-01-2019,01:00,11.61426,R,ugm-3,34.18557,R,ugm-3,51.99385,R,ugm-3,26.000,R,ugm-3 (BAM)
06-01-2019,02:00,21.63266,R,ugm-3,37.44786,R,ugm-3,70.61747,R,ugm-3,42.000,R,ugm-3 (BAM)
06-01-2019,03:00,14.22968,R,ugm-3,37.99862,R,ugm-3,59.81715,R,ugm-3,38.000,R,ugm-3 (BAM)
06-01-2019,04:00,10.57252,R,ugm-3,32.75394,R,ugm-3,48.96491,R,ugm-3,33.000,R,ugm-3 (BAM)
06-01-2019,05:00,9.97408,R,ugm-3,33.61962,R,ugm-3,48.91299,R,ugm-3,26.000,R,ugm-3 (BAM)
06-01-2019,06:00,4.38859,R,ugm-3,23.07565,R,ugm-3,29.80473,R,ugm-3,28.000,R,ugm-3 (BAM)
06-01-2019,07:00,21.27803,R,ugm-3,38.04355,R,ugm-3,70.66940,R,ugm-3,23.000,R,ugm-3 (BAM)
06-01-2019,08:00,33.74562,R,ugm-3,44.68144,R,ugm-3,96.42401,R,ugm-3,22.000,R,ugm-3 (BAM)
06-01-2019,09:00,33.08068,R,ugm-3,47.05104,R,ugm-3,97.77405,R,ugm-3,19.000,R,ugm-3 (BAM)
06-01-2019,10:00,29.19079,R,ugm-3,43.14978,R,ugm-3,87.90837,R,ugm-3,18.000,R,ugm-3 (BAM)
06-01-2019,11:00,34.44381,R,ugm-3,40.44351,R,ugm-3,93.25660,R,ugm-3,17.000,R,ugm-3 (BAM)
06-01-2019,12:00,45.81425,R,ugm-3,53.12534,R,ugm-3,123.37288,R,ugm-3,27.000,R,ugm-3 (BAM)
06-01-2019,13:00,49.33843,R,ugm-3,57.84698,R,ugm-3,133.49818,R,ugm-3,20.000,R,ugm-3 (BAM)
06-01-2019,14:00,32.98094,R,ugm-3,52.81183,R,ugm-3,103.38191,R,ugm-3,15.000,R,ugm-3 (BAM)
06-01-2019,15:00,34.04484,R,ugm-3,57.87881,R,ugm-3,110.08018,R,ugm-3,21.000,R,ugm-3 (BAM)
06-01-2019,16:00,26.63078,R,ugm-3,47.43855,R,ugm-3,88.27184,R,ugm-3,20.000,R,ugm-3 (BAM)
06-01-2019,17:00,19.18347,R,ugm-3,37.15311,R,ugm-3,66.56735,R,ugm-3,22.000,R,ugm-3 (BAM)
06-01-2019,18:00,24.23700,R,ugm-3,43.78759,R,ugm-3,80.95047,R,ugm-3,25.000,R,ugm-3 (BAM)
06-01-2019,19:00,25.56688,R,ugm-3,45.22742,R,ugm-3,84.42942,R,ugm-3,29.000,R,ugm-3 (BAM)
06-01-2019,20:00,24.56947,R,ugm-3,51.32612,R,ugm-3,88.99879,R,ugm-3,26.000,R,ugm-3 (BAM)
06-01-2019,21:00,19.91490,R,ugm-3,53.78981,R,ugm-3,84.32557,R,ugm-3,36.000,R,ugm-3 (BAM)
06-01-2019,22:00,14.09669,R,ugm-3,47.08164,R,ugm-3,68.69626,R,ugm-3,28.000,R,ugm-3 (BAM)
06-01-2019,23:00,4.85405,R,ugm-3,33.26612,R,ugm-3,40.70890,R,ugm-3,19.000,R,ugm-3 (BAM)
06-01-2019,24:00,8.97667,R,ugm-3,33.27967,R,ugm-3,47.04370,R,ugm-3,28.000,R,ugm-3 (BAM)
07-01-2019,01:00,2.66020,R,ugm-3,25.23295,R,ugm-3,29.31186,R,ugm-3,23.000,R,ugm-3 (BAM)
07-01-2019,02:00,0.66505,R,ugm-3,18.78137,R,ugm-3,19.80110,R,ugm-3,19.000,R,ugm-3 (BAM)
07-01-2019,03:00,6.45097,R,ugm-3,20.82373,R,ugm-3,30.71509,R,ugm-3,12.000,R,ugm-3 (BAM)
07-01-2019,04:00,5.05437,R,ugm-3,23.95262,R,ugm-3,31.70254,R,ugm-3,10.000,R,ugm-3 (BAM)
07-01-2019,05:00,0.33252,R,ugm-3,15.86112,R,ugm-3,16.37099,R,ugm-3,14.000,R,ugm-3 (BAM)
07-01-2019,06:00,0.63180,R,ugm-3,10.93271,R,ugm-3,11.90145,R,ugm-3,10.000,R,ugm-3 (BAM)
07-01-2019,07:00,1.16384,R,ugm-3,17.39292,R,ugm-3,19.17744,R,ugm-3,8.000,R,ugm-3 (BAM)
07-01-2019,08:00,0.83131,R,ugm-3,23.72358,R,ugm-3,24.99823,R,ugm-3,11.000,R,ugm-3 (BAM)
07-01-2019,09:00,1.19709,R,ugm-3,29.29535,R,ugm-3,31.13086,R,ugm-3,12.000,R,ugm-3 (BAM)
07-01-2019,10:00,0.89782,R,ugm-3,22.27035,R,ugm-3,23.64698,R,ugm-3,9.000,R,ugm-3 (BAM)
07-01-2019,11:00,4.09005,R,ugm-3,19.66240,R,ugm-3,25.93372,R,ugm-3,14.000,R,ugm-3 (BAM)
07-01-2019,12:00,2.99272,R,ugm-3,15.10838,R,ugm-3,19.69715,R,ugm-3,10.000,R,ugm-3 (BAM)
07-01-2019,13:00,2.95947,R,ugm-3,15.83500,R,ugm-3,20.37278,R,ugm-3,7.000,R,ugm-3 (BAM)
07-01-2019,14:00,1.49636,R,ugm-3,14.64828,R,ugm-3,16.94267,R,ugm-3,8.000,R,ugm-3 (BAM)
07-01-2019,15:00,0.83131,R,ugm-3,11.61424,R,ugm-3,12.88890,R,ugm-3,8.000,R,ugm-3 (BAM)
07-01-2019,16:00,1.09733,R,ugm-3,17.75475,R,ugm-3,19.43730,R,ugm-3,9.000,R,ugm-3 (BAM)
07-01-2019,17:00,1.62937,R,ugm-3,18.23825,R,ugm-3,20.73658,R,ugm-3,7.000,R,ugm-3 (BAM)
07-01-2019,18:00,4.18981,R,ugm-3,18.21015,R,ugm-3,24.63443,R,ugm-3,10.000,R,ugm-3 (BAM)
07-01-2019,19:00,2.26117,R,ugm-3,14.25517,R,ugm-3,17.72224,R,ugm-3,10.000,R,ugm-3 (BAM)
07-01-2019,20:00,1.66262,R,ugm-3,11.17113,R,ugm-3,13.72045,R,ugm-3,10.000,R,ugm-3 (BAM)
07-01-2019,21:00,1.23034,R,ugm-3,8.87158,R,ugm-3,10.75808,R,ugm-3,8.000,R,ugm-3 (BAM)
07-01-2019,22:00,2.62694,R,ugm-3,11.19969,R,ugm-3,15.22762,R,ugm-3,10.000,R,ugm-3 (BAM)
07-01-2019,23:00,1.92864,R,ugm-3,9.10015,R,ugm-3,12.05736,R,ugm-3,7.000,R,ugm-3 (BAM)
07-01-2019,24:00,1.59612,R,ugm-3,5.76413,R,ugm-3,8.21148,R,ugm-3,7.000,R,ugm-3 (BAM)
08-01-2019,01:00,0.88688,R,ugm-3,4.46617,R,ugm-3,5.82603,R,ugm-3,10.000,R,ugm-3 (BAM)
08-01-2019,02:00,0.53213,R,ugm-3,3.18948,R,ugm-3,4.00540,R,ugm-3,12.000,R,ugm-3 (BAM)
08-01-2019,03:00,0.46561,R,ugm-3,3.08340,R,ugm-3,3.79732,R,ugm-3,10.000,R,ugm-3 (BAM)
08-01-2019,04:00,0.46561,R,ugm-3,2.30312,R,ugm-3,3.01705,R,ugm-3,8.000,R,ugm-3 (BAM)
08-01-2019,05:00,0.39910,R,ugm-3,3.80960,R,ugm-3,4.42154,R,ugm-3,6.000,R,ugm-3 (BAM)
08-01-2019,06:00,2.19503,R,ugm-3,9.11870,R,ugm-3,12.48436,R,ugm-3,8.000,R,ugm-3 (BAM)
08-01-2019,07:00,6.41879,R,ugm-3,17.31147,R,ugm-3,27.15347,R,ugm-3,7.000,R,ugm-3 (BAM)
08-01-2019,08:00,19.62221,R,ugm-3,40.44965,R,ugm-3,70.53661,R,ugm-3,9.000,R,ugm-3 (BAM)
08-01-2019,09:00,55.60733,R,ugm-3,64.02870,R,ugm-3,149.29209,R,ugm-3,9.000,R,ugm-3 (BAM)
08-01-2019,10:00,23.64642,R,ugm-3,34.33129,R,ugm-3,70.58863,R,ugm-3,9.000,R,ugm-3 (BAM)
08-01-2019,11:00,19.35614,R,ugm-3,27.33289,R,ugm-3,57.01189,R,ugm-3,6.000,R,ugm-3 (BAM)
08-01-2019,12:00,11.90636,R,ugm-3,19.09288,R,ugm-3,37.34903,R,ugm-3,7.000,R,ugm-3 (BAM)
08-01-2019,13:00,13.03713,R,ugm-3,21.00032,R,ugm-3,40.99030,R,ugm-3,8.000,R,ugm-3 (BAM)
08-01-2019,14:00,13.23667,R,ugm-3,18.35353,R,ugm-3,38.64949,R,ugm-3,10.000,R,ugm-3 (BAM)
08-01-2019,15:00,16.79528,R,ugm-3,28.86666,R,ugm-3,54.61906,R,ugm-3,10.000,R,ugm-3 (BAM)
08-01-2019,16:00,23.34710,R,ugm-3,43.26920,R,ugm-3,79.06759,R,ugm-3,14.000,R,ugm-3 (BAM)
08-01-2019,17:00,44.46591,R,ugm-3,63.16571,R,ugm-3,131.34583,R,ugm-3,17.000,R,ugm-3 (BAM)
08-01-2019,18:00,31.09621,R,ugm-3,47.66908,R,ugm-3,95.34927,R,ugm-3,17.000,R,ugm-3 (BAM)
08-01-2019,19:00,19.45592,R,ugm-3,44.13782,R,ugm-3,73.96981,R,ugm-3,17.000,R,ugm-3 (BAM)
08-01-2019,20:00,25.57538,R,ugm-3,48.12343,R,ugm-3,87.33847,R,ugm-3,16.000,R,ugm-3 (BAM)
08-01-2019,21:00,23.28058,R,ugm-3,44.04743,R,ugm-3,79.74382,R,ugm-3,21.000,R,ugm-3 (BAM)
08-01-2019,22:00,15.13238,R,ugm-3,39.27114,R,ugm-3,62.47380,R,ugm-3,26.000,R,ugm-3 (BAM)
08-01-2019,23:00,14.46722,R,ugm-3,31.86410,R,ugm-3,54.04686,R,ugm-3,19.000,R,ugm-3 (BAM)
08-01-2019,24:00,8.64707,R,ugm-3,25.23477,R,ugm-3,38.49343,R,ugm-3,24.000,R,ugm-3 (BAM)
09-01-2019,01:00,4.08032,R,ugm-3,23.17763,R,ugm-3,29.43403,R,ugm-3,20.000,R,ugm-3 (BAM)
09-01-2019,02:00,1.28619,R,ugm-3,17.46544,R,ugm-3,19.43757,R,ugm-3,17.000,R,ugm-3 (BAM)
09-01-2019,03:00,1.76297,R,ugm-3,13.17662,R,ugm-3,15.87980,R,ugm-3,11.000,R,ugm-3 (BAM)
09-01-2019,04:00,6.95207,R,ugm-3,21.72468,R,ugm-3,32.38438,R,ugm-3,13.000,R,ugm-3 (BAM)
09-01-2019,05:00,1.66318,R,ugm-3,13.90235,R,ugm-3,16.45252,R,ugm-3,12.000,R,ugm-3 (BAM)
09-01-2019,06:00,5.42195,R,ugm-3,18.91641,R,ugm-3,27.22995,R,ugm-3,9.000,R,ugm-3 (BAM)
09-01-2019,07:00,26.57754,R,ugm-3,42.65634,R,ugm-3,83.40800,R,ugm-3,12.000,R,ugm-3 (BAM)
09-01-2019,08:00,70.55189,R,ugm-3,70.14428,R,ugm-3,178.32234,R,ugm-3,9.000,R,ugm-3 (BAM)
09-01-2019,09:00,99.69072,R,ugm-3,77.53029,R,ugm-3,230.38726,R,ugm-3,13.000,R,ugm-3 (BAM)
09-01-2019,10:00,88.08176,R,ugm-3,64.87247,R,ugm-3,199.92929,R,ugm-3,16.000,R,ugm-3 (BAM)
09-01-2019,11:00,29.47147,R,ugm-3,38.01079,R,ugm-3,83.19974,R,ugm-3,9.000,R,ugm-3 (BAM)
09-01-2019,12:00,22.55266,R,ugm-3,31.49012,R,ugm-3,66.07038,R,ugm-3,9.000,R,ugm-3 (BAM)
09-01-2019,13:00,21.52149,R,ugm-3,23.33509,R,ugm-3,56.33424,R,ugm-3,8.000,R,ugm-3 (BAM)
09-01-2019,14:00,18.49451,R,ugm-3,30.73583,R,ugm-3,59.09368,R,ugm-3,9.000,R,ugm-3 (BAM)
09-01-2019,15:00,18.59430,R,ugm-3,28.96881,R,ugm-3,57.47967,R,ugm-3,8.000,R,ugm-3 (BAM)
09-01-2019,16:00,29.40494,R,ugm-3,40.40365,R,ugm-3,85.49060,R,ugm-3,10.000,R,ugm-3 (BAM)
09-01-2019,17:00,61.47096,R,ugm-3,73.70727,R,ugm-3,167.96143,R,ugm-3,15.000,R,ugm-3 (BAM)
09-01-2019,18:00,55.25068,R,ugm-3,68.09401,R,ugm-3,152.81053,R,ugm-3,11.000,R,ugm-3 (BAM)
09-01-2019,19:00,27.04323,R,ugm-3,51.26191,R,ugm-3,92.72762,R,ugm-3,14.000,R,ugm-3 (BAM)
09-01-2019,20:00,22.85203,R,ugm-3,44.82830,R,ugm-3,79.86758,R,ugm-3,13.000,R,ugm-3 (BAM)
09-01-2019,21:00,23.11814,R,ugm-3,49.57470,R,ugm-3,85.02201,R,ugm-3,22.000,R,ugm-3 (BAM)
09-01-2019,22:00,18.42798,R,ugm-3,42.18799,R,ugm-3,70.44383,R,ugm-3,21.000,R,ugm-3 (BAM)
09-01-2019,23:00,9.11420,R,ugm-3,33.24797,R,ugm-3,47.22288,R,ugm-3,18.000,R,ugm-3 (BAM)
09-01-2019,24:00,5.15584,R,ugm-3,27.65482,R,ugm-3,35.56034,R,ugm-3,17.000,R,ugm-3 (BAM)
10-01-2019,01:00,2.70588,R,ugm-3,24.61669,R,ugm-3,28.76565,R,ugm-3,21.000,R,ugm-3 (BAM)
10-01-2019,02:00,2.06268,R,ugm-3,22.31988,R,ugm-3,25.48262,R,ugm-3,24.000,R,ugm-3 (BAM)
10-01-2019,03:00,1.36403,R,ugm-3,22.29679,R,ugm-3,24.38827,R,ugm-3,21.000,R,ugm-3 (BAM)
10-01-2019,04:00,1.33076,R,ugm-3,22.50413,R,ugm-3,24.54460,R,ugm-3,23.000,R,ugm-3 (BAM)
10-01-2019,05:00,2.72806,R,ugm-3,23.43623,R,ugm-3,27.61920,R,ugm-3,23.000,R,ugm-3 (BAM)
10-01-2019,06:00,8.51687,R,ugm-3,31.02747,R,ugm-3,44.08649,R,ugm-3,28.000,R,ugm-3 (BAM)
10-01-2019,07:00,27.54676,R,ugm-3,45.62253,R,ugm-3,87.86030,R,ugm-3,24.000,R,ugm-3 (BAM)
10-01-2019,08:00,79.74587,R,ugm-3,65.48311,R,ugm-3,187.75841,R,ugm-3,28.000,R,ugm-3 (BAM)
10-01-2019,09:00,149.67738,R,ugm-3,82.69900,R,ugm-3,312.20111,R,ugm-3,34.000,R,ugm-3 (BAM)
10-01-2019,10:00,83.97104,R,ugm-3,63.32988,R,ugm-3,192.08368,R,ugm-3,34.000,R,ugm-3 (BAM)
10-01-2019,11:00,79.14703,R,ugm-3,61.55493,R,ugm-3,182.91202,R,ugm-3,40.000,R,ugm-3 (BAM)
10-01-2019,12:00,57.22274,R,ugm-3,56.45273,R,ugm-3,144.19304,R,ugm-3,26.000,R,ugm-3 (BAM)
10-01-2019,13:00,42.58436,R,ugm-3,47.31824,R,ugm-3,112.61336,R,ugm-3,28.000,R,ugm-3 (BAM)
10-01-2019,14:00,34.36691,R,ugm-3,43.29453,R,ugm-3,95.98973,R,ugm-3,18.000,R,ugm-3 (BAM)
10-01-2019,15:00,35.03229,R,ugm-3,51.81073,R,ugm-3,105.52617,R,ugm-3,15.000,R,ugm-3 (BAM)
10-01-2019,16:00,36.99517,R,ugm-3,51.71929,R,ugm-3,108.44442,R,ugm-3,17.000,R,ugm-3 (BAM)
10-01-2019,17:00,44.08147,R,ugm-3,66.59695,R,ugm-3,134.18759,R,ugm-3,25.000,R,ugm-3 (BAM)
10-01-2019,18:00,65.34038,R,ugm-3,73.24051,R,ugm-3,173.42769,R,ugm-3,24.000,R,ugm-3 (BAM)
10-01-2019,19:00,41.75264,R,ugm-3,65.37350,R,ugm-3,129.39332,R,ugm-3,22.000,R,ugm-3 (BAM)
10-01-2019,20:00,26.68177,R,ugm-3,66.38649,R,ugm-3,107.29796,R,ugm-3,32.000,R,ugm-3 (BAM)
10-01-2019,21:00,22.15718,R,ugm-3,50.23862,R,ugm-3,84.21249,R,ugm-3,27.000,R,ugm-3 (BAM)
10-01-2019,22:00,16.13548,R,ugm-3,40.19044,R,ugm-3,64.93116,R,ugm-3,24.000,R,ugm-3 (BAM)
10-01-2019,23:00,3.95902,R,ugm-3,18.47420,R,ugm-3,24.54460,R,ugm-3,15.000,R,ugm-3 (BAM)
10-01-2019,24:00,2.79460,R,ugm-3,14.63155,R,ugm-3,18.91654,R,ugm-3,9.000,R,ugm-3 (BAM)
11-01-2019,01:00,1.77464,R,ugm-3,10.14467,R,ugm-3,12.86575,R,ugm-3,11.000,R,ugm-3 (BAM)
11-01-2019,02:00,0.88732,R,ugm-3,10.46204,R,ugm-3,11.82258,R,ugm-3,7.000,R,ugm-3 (BAM)
11-01-2019,03:00,4.55862,R,ugm-3,16.42937,R,ugm-3,23.41915,R,ugm-3,12.000,R,ugm-3 (BAM)
11-01-2019,04:00,0.69877,R,ugm-3,14.73259,R,ugm-3,15.80401,R,ugm-3,11.000,R,ugm-3 (BAM)
11-01-2019,05:00,1.33098,R,ugm-3,12.61571,R,ugm-3,14.65653,R,ugm-3,11.000,R,ugm-3 (BAM)
11-01-2019,06:00,4.52534,R,ugm-3,13.55951,R,ugm-3,20.49827,R,ugm-3,7.000,R,ugm-3 (BAM)
11-01-2019,07:00,10.94733,R,ugm-3,24.10656,R,ugm-3,40.89223,R,ugm-3,6.000,R,ugm-3 (BAM)
11-01-2019,08:00,24.19061,R,ugm-3,37.02542,R,ugm-3,74.11717,R,ugm-3,7.000,R,ugm-3 (BAM)
11-01-2019,09:00,29.84728,R,ugm-3,47.91139,R,ugm-3,93.67659,R,ugm-3,7.000,R,ugm-3 (BAM)
11-01-2019,10:00,26.42000,R,ugm-3,47.74200,R,ugm-3,88.25211,R,ugm-3,11.000,R,ugm-3 (BAM)
11-01-2019,11:00,22.19413,R,ugm-3,34.92295,R,ugm-3,68.95348,R,ugm-3,8.000,R,ugm-3 (BAM)
11-01-2019,12:00,22.52688,R,ugm-3,33.73469,R,ugm-3,68.27542,R,ugm-3,11.000,R,ugm-3 (BAM)
11-01-2019,13:00,22.02776,R,ugm-3,32.98740,R,ugm-3,66.76282,R,ugm-3,10.000,R,ugm-3 (BAM)
11-01-2019,14:00,18.36756,R,ugm-3,27.02045,R,ugm-3,55.18365,R,ugm-3,13.000,R,ugm-3 (BAM)
11-01-2019,15:00,21.92794,R,ugm-3,34.18362,R,ugm-3,67.80599,R,ugm-3,10.000,R,ugm-3 (BAM)
11-01-2019,16:00,40.62824,R,ugm-3,52.55715,R,ugm-3,114.85292,R,ugm-3,10.000,R,ugm-3 (BAM)
11-01-2019,17:00,104.31575,R,ugm-3,93.75013,R,ugm-3,253.69873,R,ugm-3,19.000,R,ugm-3 (BAM)
11-01-2019,18:00,84.71704,R,ugm-3,89.58513,R,ugm-3,219.48278,R,ugm-3,26.000,R,ugm-3 (BAM)
11-01-2019,19:00,37.03459,R,ugm-3,66.82996,R,ugm-3,123.61554,R,ugm-3,17.000,R,ugm-3 (BAM)
11-01-2019,20:00,27.81753,R,ugm-3,64.11540,R,ugm-3,106.76836,R,ugm-3,22.000,R,ugm-3 (BAM)
11-01-2019,21:00,13.04363,R,ugm-3,60.74134,R,ugm-3,80.74129,R,ugm-3,14.000,R,ugm-3 (BAM)
11-01-2019,22:00,4.29242,R,ugm-3,37.80523,R,ugm-3,44.38685,R,ugm-3,15.000,R,ugm-3 (BAM)
11-01-2019,23:00,3.06126,R,ugm-3,30.98252,R,ugm-3,35.67638,R,ugm-3,13.000,R,ugm-3 (BAM)
11-01-2019,24:00,1.13134,R,ugm-3,21.78877,R,ugm-3,23.52346,R,ugm-3,15.000,R,ugm-3 (BAM)
12-01-2019,01:00,0.93184,R,ugm-3,18.26997,R,ugm-3,19.69877,R,ugm-3,13.000,R,ugm-3 (BAM)
12-01-2019,02:00,0.26624,R,ugm-3,9.61517,R,ugm-3,10.02340,R,ugm-3,12.000,R,ugm-3 (BAM)
12-01-2019,03:00,0.13312,R,ugm-3,7.05241,R,ugm-3,7.25653,R,ugm-3,8.000,R,ugm-3 (BAM)